User: anonymous   Login
Location: Cabri�res
(43.7840°N, 5.4986°E)
Time: 17:46:23
(UTC+00:00)
Language:

ATLAS CENTAUR R/B - Orbit

View from above orbital plane
View from above orbital plane
View from above satellite
View from above satellite

Ground track
Ground track

The orbit data is extracted from the following two-line orbital elements,

1 38770U 12048N   20184.88643432 0.00000250  00000-0  17066-4 0    07
2 38770  64.6566 112.6965 0143390 137.2977 222.7023 14.97862873    09
Epoch (UTC): 02 July 2020 21:16:27
Eccentricity: 0.0143390
inclination: 64.6566°
perigee height: 474 km
apogee height: 673 km
right ascension of ascending node: 112.6965°
argument of perigee: 137.2977°
revolutions per day: 14.97862873
mean anomaly at epoch: 222.7023°
orbit number at epoch: 0

The dashed part of the orbit path shows where the satellite is in the earth's shadow,  

DLR